Location: Acorn Hill
(36.4429°N, 76.5469°W)
Time: 16:36:22
(UTC+00:00)

N. Korean satellite - Visible Passes

Search period start: 24 July 2021 00:00
Search period end: 03 August 2021 00:00
Orbit: 451 x 497 km, 97.2° (Epoch: 23 July)

Date Brightness Start Highest point End Pass type
(mag) Time Alt. Az. Time Alt. Az. Time Alt. Az.
24 Jul 9.9 09:20:14 10° ENE 09:21:07 11° E 09:22:00 10° ESE visible
27 Jul 9.5 09:30:00 10° ENE 09:32:06 15° E 09:34:11 10° SE visible
30 Jul 9.3 09:40:17 10° NE 09:43:00 20° E 09:45:39 10° SE visible
